TimeMST,TemperatureF,Dew PointF,Humidity,Sea Level PressureIn,VisibilityMPH,Wind Direction,Wind SpeedMPH,Gust SpeedMPH,PrecipitationIn,Events,Conditions,WindDirDegrees,DateUTC
12:15 AM,32.0,12.2,44,30.10,10.0,Calm,Calm,-,N/A,,Clear,0,2012-12-12 07:15:00
12:55 AM,33.8,12.2,41,30.09,10.0,Calm,Calm,-,N/A,,Clear,0,2012-12-12 07:55:00
1:15 AM,35.6,12.2,38,30.09,10.0,ENE,3.5,-,N/A,,Clear,70,2012-12-12 08:15:00
1:35 AM,32.0,12.2,44,30.09,10.0,Calm,Calm,-,N/A,,Clear,0,2012-12-12 08:35:00
1:55 AM,32.0,12.2,44,30.09,10.0,Calm,Calm,-,N/A,,Clear,0,2012-12-12 08:55:00
2:15 AM,35.6,12.2,38,30.09,10.0,Calm,Calm,-,N/A,,Clear,0,2012-12-12 09:15:00
2:55 AM,32.0,12.2,44,30.08,10.0,Calm,Calm,-,N/A,,Clear,0,2012-12-12 09:55:00
3:15 AM,32.0,12.2,44,30.08,10.0,Calm,Calm,-,N/A,,Clear,0,2012-12-12 10:15:00
3:35 AM,33.8,12.2,41,30.07,10.0,Calm,Calm,-,N/A,,Clear,0,2012-12-12 10:35:00
3:55 AM,32.0,12.2,44,30.07,10.0,Calm,Calm,-,N/A,,Clear,0,2012-12-12 10:55:00
4:15 AM,32.0,12.2,44,30.07,10.0,Calm,Calm,-,N/A,,Clear,0,2012-12-12 11:15:00
4:55 AM,32.0,12.2,44,30.07,10.0,Calm,Calm,-,N/A,,Clear,0,2012-12-12 11:55:00
5:15 AM,32.0,12.2,44,30.05,10.0,ENE,3.5,-,N/A,,Clear,70,2012-12-12 12:15:00
5:35 AM,35.6,12.2,38,30.06,10.0,Calm,Calm,-,N/A,,Clear,0,2012-12-12 12:35:00
5:55 AM,30.2,12.2,47,30.07,10.0,East,3.5,-,N/A,,Clear,80,2012-12-12 12:55:00
6:15 AM,35.6,10.4,35,30.07,10.0,ENE,3.5,-,N/A,,Clear,60,2012-12-12 13:15:00
6:35 AM,32.0,12.2,44,30.07,10.0,Calm,Calm,-,N/A,,Clear,0,2012-12-12 13:35:00
6:55 AM,33.8,10.4,38,30.07,10.0,Calm,Calm,-,N/A,,Clear,0,2012-12-12 13:55:00
7:15 AM,33.8,10.4,38,30.08,10.0,East,3.5,-,N/A,,Clear,80,2012-12-12 14:15:00
7:35 AM,33.8,10.4,38,30.08,10.0,Calm,Calm,-,N/A,,Clear,0,2012-12-12 14:35:00
7:55 AM,35.6,10.4,35,30.08,10.0,East,4.6,-,N/A,,Clear,100,2012-12-12 14:55:00
8:15 AM,37.4,10.4,33,30.09,10.0,East,4.6,-,N/A,,Clear,100,2012-12-12 15:15:00
8:35 AM,39.2,10.4,31,30.10,10.0,Calm,Calm,-,N/A,,Clear,0,2012-12-12 15:35:00
8:55 AM,41.0,10.4,29,30.10,10.0,ESE,4.6,-,N/A,,Clear,110,2012-12-12 15:55:00
9:15 AM,42.8,10.4,27,30.10,10.0,ESE,5.8,-,N/A,,Clear,110,2012-12-12 16:15:00
9:55 AM,44.6,10.4,25,30.11,10.0,SE,8.1,-,N/A,,Clear,130,2012-12-12 16:55:00
10:15 AM,46.4,10.4,23,30.11,10.0,ESE,4.6,-,N/A,,Partly Cloudy,110,2012-12-12 17:15:00
10:35 AM,46.4,10.4,23,30.11,10.0,SE,5.8,-,N/A,,Clear,130,2012-12-12 17:35:00
10:55 AM,46.4,10.4,23,30.11,10.0,SSE,3.5,-,N/A,,Scattered Clouds,150,2012-12-12 17:55:00
11:15 AM,46.4,10.4,23,30.11,10.0,Calm,Calm,-,N/A,,Scattered Clouds,0,2012-12-12 18:15:00
11:55 AM,48.2,10.4,22,30.10,10.0,SE,4.6,-,N/A,,Clear,140,2012-12-12 18:55:00
12:15 PM,48.2,8.6,20,30.09,10.0,SSE,8.1,-,N/A,,Clear,160,2012-12-12 19:15:00
12:35 PM,50.0,10.4,20,30.08,10.0,SSE,5.8,-,N/A,,Clear,150,2012-12-12 19:35:00
12:55 PM,51.8,8.6,18,30.07,10.0,SSE,10.4,-,N/A,,Scattered Clouds,150,2012-12-12 19:55:00
1:15 PM,50.0,8.6,19,30.06,10.0,South,6.9,-,N/A,,Partly Cloudy,190,2012-12-12 20:15:00
1:35 PM,50.0,8.6,19,30.06,10.0,SSE,9.2,-,N/A,,Mostly Cloudy,150,2012-12-12 20:35:00
1:55 PM,51.8,8.6,18,30.05,10.0,SSE,5.8,-,N/A,,Partly Cloudy,160,2012-12-12 20:55:00
2:15 PM,51.8,8.6,18,30.04,10.0,South,3.5,-,N/A,,Clear,170,2012-12-12 21:15:00
2:35 PM,51.8,8.6,18,30.03,10.0,South,5.8,-,N/A,,Clear,170,2012-12-12 21:35:00
2:55 PM,51.8,8.6,18,30.03,10.0,South,5.8,-,N/A,,Partly Cloudy,180,2012-12-12 21:55:00
3:15 PM,51.8,8.6,18,30.03,10.0,South,6.9,-,N/A,,Clear,170,2012-12-12 22:15:00
3:35 PM,51.8,8.6,18,30.02,10.0,SSE,9.2,-,N/A,,Clear,160,2012-12-12 22:35:00
3:55 PM,51.8,8.6,18,30.02,10.0,SSE,4.6,-,N/A,,Clear,150,2012-12-12 22:55:00
4:15 PM,51.8,8.6,18,30.02,10.0,SSE,4.6,-,N/A,,Clear,150,2012-12-12 23:15:00
4:35 PM,48.2,8.6,20,30.02,10.0,SSE,3.5,-,N/A,,Clear,150,2012-12-12 23:35:00
4:55 PM,48.2,8.6,20,30.02,10.0,SSE,5.8,-,N/A,,Clear,160,2012-12-12 23:55:00
5:15 PM,46.4,8.6,22,30.02,10.0,Calm,Calm,-,N/A,,Clear,0,2012-12-13 00:15:00
5:55 PM,42.8,8.6,25,30.02,10.0,SE,4.6,-,N/A,,Clear,130,2012-12-13 00:55:00
6:15 PM,42.8,8.6,25,30.02,10.0,Calm,Calm,-,N/A,,Clear,0,2012-12-13 01:15:00
6:55 PM,41.0,8.6,26,30.02,10.0,Calm,Calm,-,N/A,,Clear,0,2012-12-13 01:55:00
7:15 PM,41.0,8.6,26,30.02,10.0,Calm,Calm,-,N/A,,Clear,0,2012-12-13 02:15:00
7:55 PM,39.2,8.6,28,30.02,10.0,Calm,Calm,-,N/A,,Clear,0,2012-12-13 02:55:00
8:15 PM,37.4,8.6,30,30.02,10.0,Calm,Calm,-,N/A,,Clear,0,2012-12-13 03:15:00
8:35 PM,35.6,8.6,33,30.02,10.0,WNW,3.5,-,N/A,,Clear,290,2012-12-13 03:35:00
8:55 PM,35.6,8.6,33,30.03,10.0,Calm,Calm,-,N/A,,Clear,0,2012-12-13 03:55:00
9:15 PM,37.4,8.6,30,30.03,10.0,Calm,Calm,-,N/A,,Clear,0,2012-12-13 04:15:00
9:55 PM,35.6,8.6,33,30.03,10.0,Calm,Calm,-,N/A,,Clear,0,2012-12-13 04:55:00
10:15 PM,37.4,8.6,30,30.03,10.0,Calm,Calm,-,N/A,,Clear,0,2012-12-13 05:15:00
10:35 PM,39.2,8.6,28,30.03,10.0,Calm,Calm,-,N/A,,Clear,0,2012-12-13 05:35:00
10:55 PM,33.8,8.6,35,30.03,10.0,Calm,Calm,-,N/A,,Clear,0,2012-12-13 05:55:00
11:15 PM,39.2,8.6,28,30.03,10.0,Calm,Calm,-,N/A,,Clear,0,2012-12-13 06:15:00
11:35 PM,33.8,8.6,35,30.03,10.0,Calm,Calm,-,N/A,,Clear,0,2012-12-13 06:35:00
11:55 PM,39.2,8.6,28,30.03,10.0,Calm,Calm,-,N/A,,Clear,0,2012-12-13 06:55:00